DECAYED
Showing default

FLOCK 4Y 5, 55028 (Decayed)

Orbit data source: Space-Track

FLOCK 4Y 5, 55028 was a payload satellite owned by Planet (US) in LEO that was launched on Tue, 03 Jan 2023 UTC via an FALCON 9 launch vehicle from the Air Force Eastern Test Range (AFETR). Payload-class satellites include a variety of spacecraft equipped with specific instruments for various scientific and technological missions. These include communications satellites like Starlink; space stations such as the ISS; scientific satellites like the Hubble; Earth observation satellites from companies like Planet Labs, Umbra, and HawkEye 360; GPS; miniature CubeSats for education and research; and military/defense satellites.

Not visible in the next 10 days
Identifier
55028, 2023-001V
Orbit
Decayed
Country
Flag of USUS
Related business
Manufacturer
Planet
Mission
Decayed Commercial Imaging
Bus & Motor
CUBESAT 3U, Unknown motor
Mass
5.7 kg wet, 5.7 kg dry
Launch date (UTC)
2023-01-03 (3 years ago)
Launch vehicle
FALCON 9
Launch site
Air Force Eastern Test Range (AFETR)
Object type
Payload
Rocket body
Debris
Shape & HBR
Box + 2 Pan, 1.0 m
Radar Cross Section
0.108 m², Small (<0.1 m²)

Expand to show TLE details & history
Last TLE update: 2 months ago

TLE from 2 months ago
0 FLOCK 4Y 5
1 55028U 23001V   25235.65676566  .12284853  25217-5  60764-3 0  9991
2 55028  97.3437 313.0737 0015468 272.4849  87.4680 16.41216778147669
Epoch: 2025-08-23T15:45Z
TLE epoch observation values (Epoch: 2025-08-23T15:45:44.553Z)
Latitude
-0.00003°
Longitude
104.44967°
Altitude
165.391 km
Speed
7.807 km/s
True Right ascension
20h 52m 17s
True Declination
0° 00' 00"
Sunlit
Object was in full shadow at epoch
Visualization orbit readout
Latitude
Unknown
Longitude
Unknown
Altitude
Unknown
Speed
Unknown
Apparent Right ascension
Unknown
Apparent Declination
Unknown
Sunlit
N/A
Visualization observer readout
Local Sidereal Time
13:39:22
Azimuth
Unknown
Elevation
Unknown
Doppler factor
Unknown
Orbital elements
Apogee altitude
169.483 km
Perigee altitude
149.259 km
Semi-major axis
6,537.508 km
Eccentricity
0.00155
Inclination
97.3437°
RAAN
313.0737°
Arg. of periapsis
272.4849°
True anomaly
87.64509°
Mean anomaly
87.468°
Eccentric anomaly
87.55654°
Mean motion
4.10606 °/min
Orbital period
87.68 mins
BSTAR
0.00060764
Loading maneuver chart data...
Computing Atmospheric mass density...
Loading historical data...
Loading historical data...
Loading historical data...
Loading historical data...
Loading historical data...
Loading historical data...
Loading historical data...

Documentation

Showing up to 5 results
|